Location: Geography Hall
(41.1195°N, 80.5706°W)
Time: 19:43:34
(UTC+00:00)

SAR-Lupe-4 - Pass Details

Date: 29 October 2020
Orbit: 481 x 484 km, 98.2° (Epoch: 25 November)

Event Time Altitude Azimuth Distance (km) Brightness Sun altitude
Rises 23:22:29 0° 11° (N) 2,552 7.0 -12.1°
Reaches altitude 10° 23:24:34 10° 10° (N) 1,667 6.1 -12.5°
Maximum altitude 23:28:08 78° 285° (WNW) 498 3.7 -13.2°
Drops below altitude 10° 23:31:41 10° 198° (SSW) 1,654 6.6 -13.9°
Sets 23:33:44 0° 197° (SSW) 2,529 7.5 -14.2°
